WJ9H Weather Reports


time (UTC)temp
C
wind
direction
speed
KPH
gust
KPH
rain 1hr
cm
rain 24hr
cm
rain mn
cm
humidity
%
barometer
mb
20260503071936 7 335 14.5 24.1 0.00 0.00 0.00 1012.6
20260503071804 7 333 12.9 24.1 0.00 0.00 0.00 1012.6
20260503070936 7 328 14.5 27.4 0.00 0.00 0.00 1012.6
20260503070106 7 325 16.1 24.1 0.00 0.00 0.00 1012.9
20260503054937 7 318 14.5 25.7 0.00 0.00 0.00 1013.2
20260503054148 7 315 12.9 22.5 0.00 0.00 0.00 1013.6
20260503053935 7 315 12.9 22.5 0.00 0.00 0.00 1013.6
20260503053803 7 311 12.9 24.1 0.00 0.00 0.00 1013.6
20260503053108 7 326 16.1 24.1 0.00 0.00 0.00 1013.6
20260503052935 7 326 16.1 24.1 0.00 0.00 0.00 1013.6
20260503052021 7 318 12.9 24.1 0.00 0.00 0.00 1013.6
20260503051935 7 318 12.9 24.1 0.00 0.00 0.00 1013.6
20260503051802 7 311 12.9 24.1 0.00 0.00 0.00 1013.6
20260503051251 7 319 14.5 25.7 0.00 0.00 0.00 1013.6
20260503050935 7 319 14.5 25.7 0.00 0.00 0.00 1013.6
20260503050058 7 312 12.9 22.5 0.00 0.00 0.00 1013.6
20260503045935 7 312 12.9 22.5 0.00 0.00 0.00 1013.6
20260503045802 7 314 14.5 22.5 0.00 0.00 0.00 1013.6
20260503045019 7 323 14.5 24.1 0.00 0.00 0.00 1013.6
20260503044935 7 323 14.5 24.1 0.00 0.00 0.00 1013.6
20260503044101 7 322 12.9 20.9 0.00 0.00 0.00 1013.6
20260503043935 7 322 12.9 20.9 0.00 0.00 0.00 1013.6
20260503043804 7 323 11.3 20.9 0.00 0.00 0.00 1013.6
20260503043057 7 309 11.3 20.9 0.00 0.00 0.00 1013.6
20260503042935 7 309 11.3 20.9 0.00 0.00 0.00 1013.6
20260503042021 7 315 11.3 19.3 0.00 0.00 0.00 1013.9
20260503041935 7 315 11.3 19.3 0.00 0.00 0.00 1013.9
20260503041804 7 312 12.9 19.3 0.00 0.00 0.00 1013.9
20260503041108 7 322 12.9 20.9 0.00 0.00 0.00 1013.9
20260503040934 7 322 12.9 20.9 0.00 0.00 0.00 1013.9
20260503040056 8 312 12.9 20.9 0.00 0.00 0.00 1014.3
20260503035934 8 312 12.9 20.9 0.00 0.00 0.00 1014.3
20260503035803 8 319 12.9 20.9 0.00 0.00 0.00 1014.3
20260503034936 8 314 11.3 17.7 0.00 0.00 0.00 1014.3
20260503034215 8 315 8.0 16.1 0.00 0.00 0.00 1014.3
20260503033936 8 315 8.0 16.1 0.00 0.00 0.00 1014.3
20260503033803 8 307 11.3 16.1 0.00 0.00 0.00 1014.3
20260503033055 8 305 8.0 17.7 0.00 0.00 0.00 1014.3
20260503032934 8 305 8.0 17.7 0.00 0.00 0.00 1014.3
20260503032013 8 305 11.3 16.1 0.00 0.00 0.00 1014.6
20260503031934 8 305 11.3 16.1 0.00 0.00 0.00 1014.6
20260503031803 8 309 9.7 16.1 0.00 0.00 0.00 1014.6
20260503031248 8 315 11.3 16.1 0.00 0.00 0.00 1014.6
20260503030935 8 315 11.3 16.1 0.00 0.00 0.00 1014.6
20260503030229 8 309 9.7 17.7 0.00 0.00 0.00 1014.6
20260503025935 8 309 9.7 17.7 0.00 0.00 0.00 1014.6
20260503025804 8 315 11.3 17.7 0.00 0.00 0.00 1014.6
20260503024936 8 309 11.3 17.7 0.00 0.00 0.00 1014.6
20260503024209 8 316 9.7 16.1 0.00 0.00 0.00 1014.6
20260503023935 8 316 9.7 16.1 0.00 0.00 0.00 1014.6
20260503023804 8 315 9.7 16.1 0.00 0.00 0.00 1014.6
20260503023341 8 332 8.0 14.5 0.00 0.00 0.00 1014.6
20260503023247 8 332 8.0 14.5 0.00 0.00 0.00 1014.6
20260503022935 8 332 8.0 14.5 0.00 0.00 0.00 1014.6
20260503022246 9 316 8.0 14.5 0.00 0.00 0.00 1014.6
20260503021936 9 308 8.0 19.3 0.00 0.00 0.00 1014.6
20260503021804 9 329 6.4 14.5 0.00 0.00 0.00 1014.6
20260503020934 9 308 8.0 19.3 0.00 0.00 0.00 1014.6
20260503015936 9 314 8.0 16.1 0.00 0.00 0.00 1014.6
20260503015803 9 302 8.0 16.1 0.00 0.00 0.00 1014.6
20260503015217 9 312 11.3 16.1 0.00 0.00 0.00 1014.6
20260503014934 9 312 11.3 16.1 0.00 0.00 0.00 1014.6
20260503013936 10 312 8.0 12.9 0.00 0.00 0.00 1014.6
20260503013803 10 316 6.4 12.9 0.00 0.00 0.00 1014.6
20260503012938 10 321 6.4 14.5 0.00 0.00 0.00 1014.6
20260503011803 10 312 6.4 14.5 0.00 0.00 0.00 1014.6
20260503011715 10 312 8.0 14.5 0.00 0.00 0.00 1014.6
20260503010934 10 312 8.0 14.5 0.00 0.00 0.00 1014.6
20260503005803 11 322 6.4 14.5 0.00 0.00 0.00 1014.6
20260503003803 12 325 9.7 17.7 0.00 0.00 0.00 1014.6
20260503001937 12 335 6.4 22.5 0.00 0.00 0.00 1014.6
20260503001802 12 330 8.0 22.5 0.00 0.00 0.00 1014.6
20260503000937 12 330 4.8 19.3 0.00 0.00 0.00 1014.6
20260502235937 13 339 9.7 22.5 0.00 0.00 0.00 1014.9
20260502235802 13 311 11.3 22.5 0.00 0.00 0.00 1014.9
20260502234935 13 326 9.7 25.7 0.00 0.00 0.00 1014.9
20260502233937 15 332 9.7 25.7 0.00 0.00 0.00 1014.9
20260502233804 15 319 9.7 25.7 0.00 0.00 0.00 1014.9
20260502232936 15 330 12.9 22.5 0.00 0.00 0.00 1014.9
20260502231937 15 316 16.1 24.1 0.00 0.00 0.00 1015.3
20260502231804 15 347 11.3 32.2 0.00 0.00 0.00 1015.3
20260502230936 14 332 16.1 32.2 0.00 0.00 0.00 1014.9
20260502225936 14 316 9.7 24.1 0.00 0.00 0.00 1014.9
20260502225803 14 339 9.7 25.7 0.00 0.00 0.00 1015.3
20260502224936 14 330 17.7 25.7 0.00 0.00 0.00 1015.3
20260502223936 14 329 9.7 30.6 0.00 0.00 0.00 1015.3
20260502223803 14 332 11.3 30.6 0.00 0.00 0.00 1015.3
20260502222936 14 3 11.3 22.5 0.00 0.00 0.00 1015.3
20260502221936 13 10 12.9 22.5 0.00 0.00 0.00 1015.3
20260502221803 14 6 14.5 25.7 0.00 0.00 0.00 1015.3
20260502220938 14 8 12.9 33.8 0.00 0.00 0.00 1015.6
20260502215937 15 3 14.5 32.2 0.00 0.00 0.00 1015.6
20260502215803 15 325 12.9 32.2 0.00 0.00 0.00 1015.6
20260502215709 13 305 12.9 29.0 0.00 0.00 0.00 1015.6
20260502214937 13 305 12.9 29.0 0.00 0.00 0.00 1015.6
20260502214710 13 332 19.3 32.2 0.00 0.00 0.00 1016.0
20260502213937 13 332 19.3 32.2 0.00 0.00 0.00 1016.0
20260502213803 14 25 12.9 32.2 0.00 0.00 0.00 1016.0
20260502213530 14 309 8.0 29.0 0.00 0.00 0.00 1016.0
20260502212937 14 309 8.0 29.0 0.00 0.00 0.00 1016.0
20260502211940 15 330 16.1 27.4 0.00 0.00 0.00 1016.0
20260502211802 15 342 16.1 27.4 0.00 0.00 0.00 1016.0
20260502210937 15 8 12.9 24.1 0.00 0.00 0.00 1016.3
20260502205937 13 21 12.9 27.4 0.00 0.00 0.00 1016.3
20260502205802 14 347 11.3 27.4 0.00 0.00 0.00 1016.3
20260502204937 13 330 16.1 30.6 0.00 0.00 0.00 1016.3
20260502203936 13 311 17.7 29.0 0.00 0.00 0.00 1016.3
20260502203803 13 322 12.9 25.7 0.00 0.00 0.00 1016.3
20260502202937 15 349 11.3 24.1 0.00 0.00 0.00 1016.6
20260502201936 15 326 11.3 20.9 0.00 0.00 0.00 1016.6
20260502201803 15 338 9.7 29.0 0.00 0.00 0.00 1016.6
20260502200937 14 302 16.1 33.8 0.00 0.00 0.00 1017.0
20260502195936 13 352 14.5 27.4 0.00 0.00 0.00 1017.0
20260502195804 13 311 12.9 24.1 0.00 0.00 0.00 1017.0
20260502194935 13 332 12.9 32.2 0.00 0.00 0.00 1017.0
20260502194922 13 338 11.3 25.7 0.00 0.00 0.00 1017.3
20260502193936 14 339 11.3 24.1 0.00 0.00 0.00 1017.0
20260502193803 14 314 11.3 24.1 0.00 0.00 0.00 1017.3
20260502192934 13 338 11.3 25.7 0.00 0.00 0.00 1017.3
20260502192213 13 326 12.9 25.7 0.00 0.00 0.00 1017.3
20260502191936 13 326 12.9 25.7 0.00 0.00 0.00 1017.3
20260502191803 13 311 12.9 25.7 0.00 0.00 0.00 1017.3
20260502190936 13 298 8.0 25.7 0.00 0.00 0.00 1017.7
20260502190212 13 42 14.5 25.7 0.00 0.00 0.00 1017.7
20260502185936 13 39 20.9 27.4 0.00 0.00 0.00 1017.7
20260502185803 13 91 11.3 25.7 0.00 0.00 0.00 1017.7
20260502184939 13 42 14.5 25.7 0.00 0.00 0.00 1017.7
20260502183937 13 330 11.3 20.9 0.00 0.00 0.00 1018.0
20260502183803 13 349 12.9 20.9 0.00 0.00 0.00 1018.0
20260502183530 13 304 9.7 32.2 0.00 0.00 0.00 1018.0
20260502182940 12 323 11.3 22.5 0.00 0.00 0.00 1018.3
20260502182937 13 304 9.7 32.2 0.00 0.00 0.00 1018.0
20260502181939 12 323 11.3 22.5 0.00 0.00 0.00 1018.3
20260502181803 13 326 8.0 22.5 0.00 0.00 0.00 1018.3
20260502180936 13 218 11.3 22.5 0.00 0.00 0.00 1018.3
20260502180501 12 291 14.5 24.1 0.00 0.00 0.00 1018.3
20260502170500 12 159 19.3 29.0 0.00 0.00 0.00 1018.7
20260502164050 11 332 14.5 25.7 0.00 0.00 0.00 1019.0
20260502163935 11 332 14.5 25.7 0.00 0.00 0.00 1019.0
20260502163803 11 14 14.5 25.7 0.00 0.00 0.00 1019.0
20260502163054 12 281 16.1 32.2 0.00 0.00 0.00 1019.0
20260502162935 12 281 16.1 32.2 0.00 0.00 0.00 1019.0
20260502162057 11 200 22.5 29.0 0.00 0.00 0.00 1019.0
20260502161937 11 200 22.5 29.0 0.00 0.00 0.00 1019.0
20260502161803 11 158 14.5 22.5 0.00 0.00 0.00 1019.0
20260502161459 12 302 11.3 27.4 0.00 0.00 0.00 1019.3
20260502160936 12 302 11.3 27.4 0.00 0.00 0.00 1019.3
20260502160459 11 188 17.7 22.5 0.00 0.00 0.00 1019.3
20260502152137 11 315 8.0 17.7 0.00 0.00 0.00 1019.7
20260502151937 11 315 8.0 17.7 0.00 0.00 0.00 1019.7
20260502151804 11 314 9.7 17.7 0.00 0.00 0.00 1019.7
20260502151710 11 326 12.9 17.7 0.00 0.00 0.00 1019.3
20260502150936 11 326 12.9 17.7 0.00 0.00 0.00 1019.3
20260502123803 5 318 6.4 14.5 0.00 0.00 0.00 1020.0
20260502123024 5 308 6.4 14.5 0.00 0.00 0.00 1020.0
20260502122937 5 308 6.4 14.5 0.00 0.00 0.00 1020.0
20260502122024 3 322 9.7 12.9 0.00 0.00 0.00 1020.0
20260502121939 3 322 9.7 12.9 0.00 0.00 0.00 1020.0
20260502121803 3 315 11.3 12.9 0.00 0.00 0.00 1020.0
20260502121025 3 326 8.0 12.9 0.00 0.00 0.00 1020.0
20260502120937 3 326 8.0 12.9 0.00 0.00 0.00 1020.0
20260502115803 3 308 6.4 12.9 0.00 0.00 0.00 1019.7
20260502114021 3 308 8.0 14.5 0.00 0.00 0.00 1019.7
20260502113936 3 308 8.0 14.5 0.00 0.00 0.00 1019.7
20260502113802 3 312 6.4 14.5 0.00 0.00 0.00 1019.7
20260502113028 3 316 8.0 14.5 0.00 0.00 0.00 1019.7
20260502112936 3 316 8.0 14.5 0.00 0.00 0.00 1019.7
20260502112014 2 298 8.0 11.3 0.00 0.00 0.00 1019.7
20260502111936 2 298 8.0 11.3 0.00 0.00 0.00 1019.7
20260502111802 2 302 6.4 11.3 0.00 0.00 0.00 1019.7
20260502111018 2 318 4.8 11.3 0.00 0.00 0.00 1019.7
20260502110935 2 318 4.8 11.3 0.00 0.00 0.00 1019.7
20260502110021 1 314 4.8 12.9 0.00 0.00 0.00 1019.7
20260502105935 1 314 4.8 12.9 0.00 0.00 0.00 1019.7
20260502105804 1 314 8.0 12.9 0.00 0.00 0.00 1019.7
20260502104941 1 316 6.4 11.3 0.00 0.00 0.00 1019.7
20260502104008 1 315 4.8 9.7 0.00 0.00 0.00 1019.7
20260502103934 1 315 4.8 9.7 0.00 0.00 0.00 1019.7
20260502103804 1 316 4.8 9.7 0.00 0.00 0.00 1019.7
20260502103014 1 312 4.8 11.3 0.00 0.00 0.00 1019.3
20260502102935 1 312 4.8 11.3 0.00 0.00 0.00 1019.3
20260502102043 1 314 6.4 9.7 0.00 0.00 0.00 1019.3
20260502101937 1 314 6.4 9.7 0.00 0.00 0.00 1019.3
20260502101803 1 315 4.8 9.7 0.00 0.00 0.00 1019.3
20260502101015 1 316 6.4 11.3 0.00 0.00 0.00 1019.3
20260502100934 1 316 6.4 11.3 0.00 0.00 0.00 1019.3
20260502091006 1 314 4.8 8.0 0.00 0.00 0.00 1019.3
20260502090934 1 314 4.8 8.0 0.00 0.00 0.00 1019.3